KI5QWQ Weather Reports


time (UTC)temp
C
wind
direction
speed
KPH
gust
KPH
rain 1hr
cm
rain 24hr
cm
rain mn
cm
humidity
%
barometer
mb
20260901020414 -17 0.0 0.0 0.00 0.00 0.00 1016.7
20260901015913 -17 0.0 0.0 0.00 0.00 0.00 1016.8
20260901015410 -17 0.0 0.0 0.00 0.00 0.00 1016.8
20260901014909 -17 0.0 0.0 0.00 0.00 0.00 1016.5
20260901014406 -17 0.0 0.0 0.00 0.00 0.00 1016.4
20260901013900 -17 0.0 0.0 0.00 0.00 0.00 1016.4
20260901013351 -17 0.0 0.0 0.00 0.00 0.00 1016.4
20260901012847 -17 0.0 0.0 0.00 0.00 0.00 1016.4
20260901012341 -17 0.0 0.0 0.00 0.00 0.00 1016.4
20260901011837 -17 0.0 0.0 0.00 0.00 0.00 1016.4
20260901011332 -17 0.0 0.0 0.00 0.00 0.00 1016.2
20260901010826 -17 0.0 0.0 0.00 0.00 0.00 1016.1
20260901010320 -17 0.0 0.0 0.00 0.00 0.00 1016.2
20260901005819 -17 0.0 0.0 0.00 0.00 0.00 1016.1
20260901005315 -17 0.0 0.0 0.00 0.00 0.00 1016.1
20260901004814 -17 0.0 0.0 0.00 0.00 0.00 1016.0
20260901004309 -17 0.0 0.0 0.00 0.00 0.00 1016.0
20260901003809 -17 166 0.0 1.6 0.00 0.00 0.00 1016.0
20260901003303 -17 166 0.0 1.6 0.00 0.00 0.00 1016.0
20260901002757 -17 166 0.0 1.6 0.00 0.00 0.00 1016.0
20260901002252 -17 166 0.0 1.6 0.00 0.00 0.00 1015.8
20260901001747 -17 166 0.0 1.6 0.00 0.00 0.00 1015.8
20260901001243 -17 166 0.0 1.6 0.00 0.00 0.00 1015.8
20260901000738 -17 166 0.0 1.6 0.00 0.00 0.00 1015.8
20260901000233 -17 166 0.0 1.6 0.00 0.00 0.00 1015.8
20260831235731 -17 166 0.0 1.6 0.00 0.00 0.00 1015.8
20260831235227 -17 166 0.0 1.6 0.00 0.00 0.00 1015.8
20260831234722 -17 166 0.0 1.6 0.00 0.00 0.00 1015.9
20260831234222 -17 166 0.0 1.6 0.00 0.00 0.00 1016.1
20260831233717 -17 194 4.8 6.4 0.00 0.00 0.00 1016.0
20260831233213 -17 194 4.8 6.4 0.00 0.00 0.00 1016.0
20260831232712 -17 194 4.8 6.4 0.00 0.00 0.00 1016.1
20260831232209 -17 194 4.8 6.4 0.00 0.00 0.00 1016.0
20260831231705 -17 194 4.8 6.4 0.00 0.00 0.00 1016.0
20260831231200 -17 194 4.8 6.4 0.00 0.00 0.00 1016.0
20260831230655 -17 194 4.8 6.4 0.00 0.00 0.00 1016.0
20260831230150 -17 181 4.8 8.0 0.00 0.00 0.00 1016.1
20260831225650 -17 181 4.8 8.0 0.00 0.00 0.00 1016.0
20260831225145 -17 167 4.8 6.4 0.00 0.00 0.00 1016.1
20260831224640 -17 167 4.8 6.4 0.00 0.00 0.00 1016.1
20260831224135 -17 167 4.8 6.4 0.00 0.00 0.00 1016.3
20260831223631 -17 167 4.8 6.4 0.00 0.00 0.00 1016.4
20260831223127 -17 167 4.8 6.4 0.00 0.00 0.00 1016.1
20260831222622 -17 160 6.4 11.3 0.00 0.00 0.00 1016.3
20260831222118 -17 160 6.4 11.3 0.00 0.00 0.00 1016.3
20260831221613 -17 160 6.4 11.3 0.00 0.00 0.00 1016.3
20260831221108 -17 160 6.4 11.3 0.00 0.00 0.00 1016.5
20260831220603 -17 186 4.8 8.0 0.00 0.00 0.00 1016.4
20260831220058 -17 186 4.8 8.0 0.00 0.00 0.00 1016.2
20260831215554 -17 186 4.8 8.0 0.00 0.00 0.00 1016.6
20260831215049 -17 201 3.2 8.0 0.00 0.00 0.00 1016.7
20260831214547 -17 201 3.2 8.0 0.00 0.00 0.00
20260831214042 -17 170 3.2 8.0 0.00 0.00 0.00 1017.4
20260831213539 -17 159 3.2 4.8 0.00 0.00 0.00 1017.4
20260831213034 -17 199 1.6 6.4 0.00 0.00 0.00 1017.4
20260831212530 -17 174 3.2 8.0 0.00 0.00 0.00 1017.4
20260831212025 -17 143 4.8 4.8 0.00 0.00 0.00 1017.4
20260831211520 -17 210 3.2 4.8 0.00 0.00 0.00 1017.4
20260831211019 -17 210 3.2 4.8 0.00 0.00 0.00 1017.4
20260831210514 -17 186 4.8 9.7 0.00 0.00 0.00 1017.4
20260831210011 -17 186 4.8 9.7 0.00 0.00 0.00 1017.4
20260831205510 -17 184 3.2 9.7 0.00 0.00 0.00 1017.4
20260831205007 -17 173 11.3 16.1 0.00 0.00 0.00 1017.4
20260831204501 -17 173 11.3 16.1 0.00 0.00 0.00 1017.4
20260831203959 -17 128 3.2 11.3 0.00 0.00 0.00 1017.5
20260831203459 -17 190 1.6 4.8 0.00 0.00 0.00 1017.6
20260831202957 -17 224 3.2 4.8 0.00 0.00 0.00 1017.9
20260831202453 -17 269 0.0 3.2 0.00 0.00 0.00 1017.9
20260831201952 -17 189 4.8 9.7 0.00 0.00 0.00 1018.0
20260831201450 -17 169 4.8 6.4 0.00 0.00 0.00 1018.1
20260831200947 -17 215 1.6 6.4 0.00 0.00 0.00 1018.2
20260831200442 -17 343 0.0 11.3 0.00 0.00 0.00 1018.2
20260831195936 -17 209 3.2 4.8 0.00 0.00 0.00 1018.3
20260831195431 -17 123 0.0 6.4 0.00 0.00 0.00 1018.4
20260831194927 -17 224 4.8 9.7 0.00 0.00 0.00 1018.3
20260831194422 -17 157 3.2 3.2 0.00 0.00 0.00 1018.5
20260831193921 -17 0.0 0.0 0.00 0.00 0.00 1018.6
20260831193417 -17 0.0 0.0 0.00 0.00 0.00 1018.5
20260831192912 -17 0.0 0.0 0.00 0.00 0.00 1018.7
20260831192407 -17 0.0 0.0 0.00 0.00 0.00 1018.7
20260831191902 -17 193 4.8 6.4 0.00 0.00 0.00 1018.7
20260831191358 -17 193 4.8 6.4 0.00 0.00 0.00 1018.8
20260831190854 -17 193 4.8 6.4 0.00 0.00 0.00 1019.0
20260831190354 -17 193 4.8 6.4 0.00 0.00 0.00 1019.2
20260831185853 -17 193 4.8 6.4 0.00 0.00 0.00 1019.1
20260831185350 -17 193 4.8 6.4 0.00 0.00 0.00 1019.1
20260831184849 -17 193 4.8 6.4 0.00 0.00 0.00 1019.3
20260831184344 -17 193 4.8 6.4 0.00 0.00 0.00 1019.3
20260831183839 -17 193 4.8 6.4 0.00 0.00 0.00 1019.3
20260831183339 -17 193 4.8 6.4 0.00 0.00 0.00 1019.5
20260831182838 -17 193 4.8 6.4 0.00 0.00 0.00 1019.5
20260831182333 -17 193 4.8 6.4 0.00 0.00 0.00 1019.5
20260831181828 -17 154 4.8 4.8 0.00 0.00 0.00 1019.5
20260831181324 -17 154 4.8 4.8 0.00 0.00 0.00 1019.8
20260831180818 -17 154 4.8 4.8 0.00 0.00 0.00 1019.7
20260831180313 -17 198 3.2 4.8 0.00 0.00 0.00 1019.8
20260831175812 -17 198 3.2 4.8 0.00 0.00 0.00 1019.8
20260831175309 -17 157 4.8 11.3 0.00 0.00 0.00 1020.0
20260831174804 -17 157 4.8 11.3 0.00 0.00 0.00 1020.0
20260831174300 -17 157 4.8 11.3 0.00 0.00 0.00 1020.1
20260831173759 -17 157 4.8 11.3 0.00 0.00 0.00 1020.2
20260831173253 -17 157 4.8 11.3 0.00 0.00 0.00 1020.3
20260831172748 -17 157 4.8 11.3 0.00 0.00 0.00 1020.3
20260831172243 -17 215 4.8 6.4 0.00 0.00 0.00 1020.3
20260831171738 -17 215 4.8 6.4 0.00 0.00 0.00 1020.6
20260831171236 -17 172 3.2 11.3 0.00 0.00 0.00 1020.6
20260831170732 -17 172 3.2 11.3 0.00 0.00 0.00 1020.7
20260831170228 -17 172 3.2 11.3 0.00 0.00 0.00 1020.6
20260831165724 -17 172 3.2 11.3 0.00 0.00 0.00 1020.6
20260831165220 -17 172 3.2 11.3 0.00 0.00 0.00 1020.5
20260831164715 -17 174 6.4 8.0 0.00 0.00 0.00 1020.6
20260831164212 -17 202 3.2 6.4 0.00 0.00 0.00 1020.5
20260831163707 -17 202 3.2 6.4 0.00 0.00 0.00 1020.5
20260831163202 -17 253 4.8 6.4 0.00 0.00 0.00 1020.5
20260831162701 -17 221 3.2 4.8 0.00 0.00 0.00 1020.4
20260831162200 -17 231 1.6 6.4 0.00 0.00 0.00 1020.6
20260831161655 -17 174 4.8 8.0 0.00 0.00 0.00 1020.6
20260831161152 -17 0.0 0.0 0.00 0.00 0.00 1020.7
20260831160651 -17 0.0 0.0 0.00 0.00 0.00 1020.7
20260831160146 -17 188 3.2 4.8 0.00 0.00 0.00 1020.7
20260831155646 -17 188 3.2 4.8 0.00 0.00 0.00 1020.7
20260831155141 -17 188 3.2 4.8 0.00 0.00 0.00 1020.6
20260831154637 -17 188 3.2 4.8 0.00 0.00 0.00 1020.7
20260831154132 -17 188 3.2 4.8 0.00 0.00 0.00 1020.7
20260831153631 -17 188 3.2 4.8 0.00 0.00 0.00 1020.6
20260831153128 -17 188 3.2 4.8 0.00 0.00 0.00 1020.6
20260831152623 -17 188 3.2 4.8 0.00 0.00 0.00 1020.7
20260831152119 -17 188 3.2 4.8 0.00 0.00 0.00 1020.5
20260831151619 -17 188 3.2 4.8 0.00 0.00 0.00 1020.6
20260831151113 -17 188 3.2 4.8 0.00 0.00 0.00 1020.6
20260831150608 -17 188 3.2 4.8 0.00 0.00 0.00 1020.5
20260831150104 -17 207 1.6 6.4 0.00 0.00 0.00 1020.4
20260831145558 -17 231 4.8 4.8 0.00 0.00 0.00 1020.5
20260831145054 -17 0.0 0.0 0.00 0.00 0.00 1020.3
20260831144549 -17 0.0 0.0 0.00 0.00 0.00 1020.3
20260831144044 -17 0.0 0.0 0.00 0.00 0.00 1020.3
20260831143539 -17 0.0 0.0 0.00 0.00 0.00 1020.4
20260831143035 -17 0.0 0.0 0.00 0.00 0.00 1020.3
20260831142526 -17 0.0 0.0 0.00 0.00 0.00 1020.3
20260831142021 -17 0.0 0.0 0.00 0.00 0.00 1020.3
20260831141520 -17 0.0 0.0 0.00 0.00 0.00 1020.4
20260831141014 -17 0.0 0.0 0.00 0.00 0.00 1020.3
20260831140509 -17 199 1.6 3.2 0.00 0.00 0.00 1020.2
20260831140009 -17 199 1.6 3.2 0.00 0.00 0.00 1020.0
20260831135506 -17 199 1.6 3.2 0.00 0.00 0.00 1020.1
20260831135001 -17 199 1.6 3.2 0.00 0.00 0.00 1020.2
20260831134458 -17 199 1.6 3.2 0.00 0.00 0.00 1020.2
20260831133957 -17 199 1.6 3.2 0.00 0.00 0.00 1020.2
20260831133452 -17 199 1.6 3.2 0.00 0.00 0.00 1019.9
20260831132947 -17 199 1.6 3.2 0.00 0.00 0.00 1019.9
20260831132443 -17 199 1.6 3.2 0.00 0.00 0.00 1020.0
20260831131942 -17 199 1.6 3.2 0.00 0.00 0.00 1019.9
20260831131437 -17 199 1.6 3.2 0.00 0.00 0.00 1019.8
20260831130933 -17 199 1.6 3.2 0.00 0.00 0.00 1019.9
20260831130428 -17 230 3.2 3.2 0.00 0.00 0.00 1019.8
20260831125928 -17 230 3.2 3.2 0.00 0.00 0.00 1019.8
20260831125427 -17 230 3.2 3.2 0.00 0.00 0.00 1019.6
20260831124923 -17 230 3.2 3.2 0.00 0.00 0.00 1019.5
20260831124419 -17 230 3.2 3.2 0.00 0.00 0.00 1019.5
20260831123915 -17 230 3.2 3.2 0.00 0.00 0.00 1019.5
20260831123413 -17 230 3.2 3.2 0.00 0.00 0.00 1019.5
20260831122908 -17 230 3.2 3.2 0.00 0.00 0.00 1019.6
20260831122404 -17 230 3.2 3.2 0.00 0.00 0.00 1019.4
20260831121858 -17 230 3.2 3.2 0.00 0.00 0.00 1019.5
20260831121354 -17 199 0.0 1.6 0.00 0.00 0.00 1019.5
20260831120850 -17 199 0.0 1.6 0.00 0.00 0.00 1019.6
20260831120344 -17 199 0.0 1.6 0.00 0.00 0.00 1019.5
20260831115839 -17 199 0.0 1.6 0.00 0.00 0.00 1019.4
20260831115336 -17 199 0.0 1.6 0.00 0.00 0.00 1019.6
20260831114835 -17 199 0.0 1.6 0.00 0.00 0.00 1019.2
20260831114333 -17 199 0.0 1.6 0.00 0.00 0.00 1019.2
20260831113830 -17 199 0.0 1.6 0.00 0.00 0.00 1019.3
20260831113330 -17 217 0.0 1.6 0.00 0.00 0.00 1019.3
20260831112824 -17 217 0.0 1.6 0.00 0.00 0.00 1019.1
20260831112319 -17 240 1.6 3.2 0.00 0.00 0.00 1019.3
20260831111815 -17 240 1.6 3.2 0.00 0.00 0.00 1019.1
20260831111310 -17 240 1.6 3.2 0.00 0.00 0.00 1019.0
20260831110807 -17 240 1.6 3.2 0.00 0.00 0.00 1019.0
20260831110301 -17 240 1.6 3.2 0.00 0.00 0.00 1018.9
20260831105800 -17 216 3.2 3.2 0.00 0.00 0.00 1019.0
20260831105256 -17 216 3.2 3.2 0.00 0.00 0.00 1019.0
20260831104755 -17 216 3.2 3.2 0.00 0.00 0.00 1019.0
20260831104252 -17 218 1.6 4.8 0.00 0.00 0.00 1018.9
20260831103752 -17 237 0.0 3.2 0.00 0.00 0.00 1018.9
20260831103248 -17 246 0.0 1.6 0.00 0.00 0.00 1018.9
20260831102742 -17 253 0.0 3.2 0.00 0.00 0.00 1018.9
20260831102237 -17 191 0.0 1.6 0.00 0.00 0.00 1019.0
20260831101732 -17 191 0.0 1.6 0.00 0.00 0.00 1019.1
20260831101228 -17 191 0.0 1.6 0.00 0.00 0.00 1019.0
20260831100724 -17 213 3.2 4.8 0.00 0.00 0.00 1018.9
20260831100220 -17 213 3.2 4.8 0.00 0.00 0.00 1019.1
20260831095718 -17 224 0.0 1.6 0.00 0.00 0.00 1019.1
20260831095213 -17 206 0.0 1.6 0.00 0.00 0.00 1019.1
20260831094708 -17 206 0.0 1.6 0.00 0.00 0.00 1018.9
20260831094204 -17 230 0.0 3.2 0.00 0.00 0.00 1019.0
20260831093700 -17 222 1.6 3.2 0.00 0.00 0.00 1018.8
20260831093155 -17 183 0.0 3.2 0.00 0.00 0.00 1018.9
20260831092651 -17 242 0.0 1.6 0.00 0.00 0.00 1018.9
20260831092147 -17 228 0.0 3.2 0.00 0.00 0.00 1019.0
20260831091646 -17 247 0.0 3.2 0.00 0.00 0.00 1018.9
20260831091142 -17 227 1.6 3.2 0.00 0.00 0.00 1018.8
20260831090637 -17 202 0.0 3.2 0.00 0.00 0.00 1018.9
20260831090133 -17 237 0.0 1.6 0.00 0.00 0.00 1018.9
20260831085628 -17 223 0.0 3.2 0.00 0.00 0.00 1018.9
20260831085124 -17 206 0.0 1.6 0.00 0.00 0.00 1019.0
20260831084619 -17 218 1.6 3.2 0.00 0.00 0.00 1018.8
20260831084115 -17 217 0.0 1.6 0.00 0.00 0.00 1019.0
20260831083611 -17 207 1.6 3.2 0.00 0.00 0.00 1019.1
20260831083106 -17 218 0.0 3.2 0.00 0.00 0.00 1019.0
20260831082605 -17 205 0.0 1.6 0.00 0.00 0.00 1019.0
20260831082100 -17 236 0.0 3.2 0.00 0.00 0.00 1018.9
20260831081556 -17 219 0.0 6.4 0.00 0.00 0.00 1018.9
20260831081051 -17 213 1.6 3.2 0.00 0.00 0.00 1019.1
20260831080546 -17 199 1.6 8.0 0.00 0.00 0.00 1018.8
20260831080042 -17 196 0.0 3.2 0.00 0.00 0.00 1018.7
20260831075542 -17 140 3.2 11.3 0.00 0.00 0.00 1018.8
20260831075037 -17 213 0.0 3.2 0.00 0.00 0.00 1018.8
20260831074532 -17 219 3.2 6.4 0.00 0.00 0.00 1018.9
20260831074032 -17 200 3.2 8.0 0.00 0.00 0.00 1018.8
20260831073526 -17 207 3.2 11.3 0.00 0.00 0.00 1018.7
20260831073026 -17 222 1.6 4.8 0.00 0.00 0.00 1019.0
20260831072521 -17 230 0.0 3.2 0.00 0.00 0.00 1018.8
20260831072018 -17 254 0.0 3.2 0.00 0.00 0.00 1018.9
20260831071516 -17 228 1.6 4.8 0.00 0.00 0.00 1018.9
20260831071012 -17 193 3.2 4.8 0.00 0.00 0.00 1018.8
20260831070510 -17 217 3.2 3.2 0.00 0.00 0.00 1018.9
20260831070005 -17 229 0.0 6.4 0.00 0.00 0.00 1019.0
20260831065503 -17 205 3.2 9.7 0.00 0.00 0.00 1019.0
20260831064958 -17 252 3.2 3.2 0.00 0.00 0.00 1018.9
20260831064453 -17 229 0.0 1.6 0.00 0.00 0.00 1019.1
20260831063948 -17 136 0.0 3.2 0.00 0.00 0.00 1019.0
20260831063443 -17 202 1.6 4.8 0.00 0.00 0.00 1019.0
20260831062937 -17 229 0.0 4.8 0.00 0.00 0.00 1019.1
20260831062433 -17 200 3.2 4.8 0.00 0.00 0.00 1019.0
20260831061932 -17 180 3.2 3.2 0.00 0.00 0.00 1018.8
20260831061431 -17 205 0.0 3.2 0.00 0.00 0.00 1019.1
20260831060927 -17 209 0.0 3.2 0.00 0.00 0.00 1019.0
20260831060422 -17 226 1.6 3.2 0.00 0.00 0.00 1019.0
20260831055921 -17 216 1.6 6.4 0.00 0.00 0.00 1018.8
20260831055416 -17 227 0.0 3.2 0.00 0.00 0.00 1018.7
20260831054912 -17 217 0.0 1.6 0.00 0.00 0.00 1018.7
20260831054407 -17 211 0.0 6.4 0.00 0.00 0.00 1018.8
20260831053906 -17 165 0.0 3.2 0.00 0.00 0.00 1018.8
20260831053404 -17 195 0.0 1.6 0.00 0.00 0.00 1018.7
20260831052859 -17 136 8.0 8.0 0.00 0.00 0.00 1018.5
20260831052358 -17 244 1.6 3.2 0.00 0.00 0.00 1018.7
20260831051857 -17 212 0.0 3.2 0.00 0.00 0.00 1018.5
20260831051355 -17 116 1.6 3.2 0.00 0.00 0.00 1018.4
20260831050850 -17 175 3.2 4.8 0.00 0.00 0.00 1018.5
20260831050350 -17 217 0.0 3.2 0.00 0.00 0.00 1018.6
20260831045844 -17 207 0.0 6.4 0.00 0.00 0.00 1018.3
20260831045343 -17 240 0.0 3.2 0.00 0.00 0.00 1018.5
20260831044838 -17 207 1.6 3.2 0.00 0.00 0.00 1018.4
20260831044333 -17 192 1.6 3.2 0.00 0.00 0.00 1018.3
20260831043830 -17 355 1.6 3.2 0.00 0.00 0.00 1018.3
20260831043329 -17 226 0.0 6.4 0.00 0.00 0.00 1018.2
20260831042824 -17 225 3.2 8.0 0.00 0.00 0.00 1018.4
20260831042323 -17 215 3.2 6.4 0.00 0.00 0.00 1018.2
20260831041819 -17 232 1.6 3.2 0.00 0.00 0.00 1018.3
20260831041318 -17 217 4.8 4.8 0.00 0.00 0.00 1018.3
20260831040813 -17 184 4.8 8.0 0.00 0.00 0.00 1018.2
20260831040312 -17 137 8.0 11.3 0.00 0.00 0.00 1018.1
20260831035811 -17 198 4.8 8.0 0.00 0.00 0.00 1018.1
20260831035310 -17 159 4.8 4.8 0.00 0.00 0.00 1018.0
20260831034804 -17 191 1.6 6.4 0.00 0.00 0.00 1018.2
20260831034259 -17 214 4.8 6.4 0.00 0.00 0.00 1018.0
20260831033755 -17 106 4.8 4.8 0.00 0.00 0.00 1017.9
20260831033249 -17 204 3.2 11.3 0.00 0.00 0.00 1017.6
20260831032744 -17 139 4.8 9.7 0.00 0.00 0.00 1017.5
20260831032239 -17 204 4.8 14.5 0.00 0.00 0.00 1017.6
20260831031734 -17 238 1.6 8.0 0.00 0.00 0.00 1017.3
20260831031229 -17 202 4.8 11.3 0.00 0.00 0.00 1017.3
20260831030728 -17 193 0.0 0.0 0.00 0.00 0.00 1017.4
20260831030227 -17 111 3.2 6.4 0.00 0.00 0.00 1017.4
20260831025726 -17 0.0 0.0 0.00 0.00 0.00 1017.2
20260831025221 -17 0.0 0.0 0.00 0.00 0.00 1017.2
20260831024717 -17 0.0 0.0 0.00 0.00 0.00 1017.1
20260831024215 -17 0.0 0.0 0.00 0.00 0.00 1016.8
20260831023714 -17 0.0 0.0 0.00 0.00 0.00 1017.1
20260831023214 -17 0.0 0.0 0.00 0.00 0.00 1017.0
20260831022709 -17 0.0 0.0 0.00 0.00 0.00 1016.8
20260831022203 -17 0.0 0.0 0.00 0.00 0.00 1016.6
20260831021703 -17 0.0 0.0 0.00 0.00 0.00 1016.4
20260831021158 -17 0.0 0.0 0.00 0.00 0.00 1016.2
20260831020654 -17 0.0 0.0 0.00 0.00 0.00 1016.2